Date String (YYYY-MM-DD hh:mm:ss) UTC,Instrument flags,Ambient pressure (hPa),Sample flow (lpm),Bypass flow (lpm),Sample temperature (°C),Ambient temperature (°C),ASC tube jacket temperature (°C),LED temperature (°C),Box temperature (°C),Sample RH (%),Span deviation,Mass concentration (μg/m³),Mass concentration (μg/m³),Mass concentration (μg/m³)
DateTimeUTC,F1_M11,P_M11,Q1_M11,Q2_M11,T1_M11,T2_M11,T3_M11,T4_M11,T5_M11,U1_M11,ZSPAN_M11,X0_M11,X2_M11,X1_M11
2022-07-13 01:00:00,,0827.7,5.00,0.00,29.5,28.2,00.0,38.2,31.5,18.3,0000.0,0008.28,0003.89,0003.47
2022-07-13 01:01:00,,0827.8,5.01,0.00,29.5,28.4,00.0,38.2,31.5,18.6,0000.0,0008.08,0003.84,0003.47
2022-07-13 01:02:00,,0827.8,5.01,0.00,29.6,28.5,00.0,38.2,31.6,18.6,0000.0,0007.91,0003.82,0003.47
2022-07-13 01:03:00,,0827.8,5.00,0.00,29.6,28.3,00.0,38.2,31.6,18.4,0000.0,0008.15,0003.83,0003.47
2022-07-13 01:04:00,,0827.8,5.00,0.00,29.6,27.5,00.0,38.2,31.4,18.3,0000.0,0009.41,0003.85,0003.47
2022-07-13 01:05:00,,0827.8,4.99,0.00,29.5,27.2,00.0,38.1,31.3,18.8,0000.0,0010.87,0003.90,0003.49
2022-07-13 01:06:00,,0827.9,5.00,0.00,29.5,27.2,00.0,38.1,31.2,19.4,0000.0,0011.81,0003.90,0003.49
2022-07-13 01:07:00,,0827.9,5.00,0.00,29.4,27.3,00.0,38.1,31.2,19.1,0000.0,0012.18,0003.88,0003.49
2022-07-13 01:08:00,,0827.9,5.00,0.00,29.4,27.5,00.0,38.1,31.2,19.1,0000.0,0012.12,0003.87,0003.50
2022-07-13 01:09:00,,0827.8,5.01,0.00,29.4,27.7,00.0,38.1,31.3,19.1,0000.0,0012.05,0003.89,0003.50
2022-07-13 01:10:00,,0827.8,4.99,0.00,29.4,27.9,00.0,38.1,31.3,19.2,0000.0,0011.62,0003.90,0003.50
2022-07-13 01:11:00,,0827.8,5.00,0.00,29.5,28.1,00.0,38.2,31.4,20.0,0000.0,0011.68,0003.90,0003.50
2022-07-13 01:12:00,,0827.9,5.00,0.00,29.5,28.3,00.0,38.2,31.5,19.5,0000.0,0011.95,0003.91,0003.49
2022-07-13 01:13:00,,0827.9,5.00,0.00,29.5,28.4,00.0,38.2,31.5,19.1,0000.0,0012.41,0003.93,0003.50
2022-07-13 01:14:00,,0828.0,5.00,0.00,29.6,28.6,00.0,38.2,31.6,20.0,0000.0,0012.79,0003.94,0003.49
2022-07-13 01:15:00,,0827.9,5.00,0.00,29.6,28.7,00.0,38.3,31.7,19.0,0000.0,0012.05,0003.94,0003.49
2022-07-13 01:16:00,,0827.9,4.99,0.00,29.6,28.2,00.0,38.2,31.6,19.3,0000.0,0010.52,0003.91,0003.48
2022-07-13 01:17:00,,0827.9,5.00,0.00,29.6,27.5,00.0,38.2,31.4,19.4,0000.0,0009.98,0003.91,0003.48
2022-07-13 01:18:00,,0827.9,4.99,0.00,29.5,27.2,00.0,38.2,31.3,19.3,0000.0,0009.45,0003.94,0003.49
2022-07-13 01:19:00,,0828.0,5.00,0.00,29.5,27.3,00.0,38.2,31.2,19.5,0000.0,0010.17,0003.95,0003.49
2022-07-13 01:20:00,,0827.9,5.00,0.00,29.5,27.4,00.0,38.1,31.2,20.1,0000.0,0011.04,0003.96,0003.50
2022-07-13 01:21:00,,0828.0,5.00,0.00,29.4,27.6,00.0,38.1,31.3,19.6,0000.0,0010.77,0003.96,0003.50
2022-07-13 01:22:00,,0827.9,4.99,0.00,29.5,27.8,00.0,38.2,31.3,19.8,0000.0,0010.83,0003.97,0003.50
2022-07-13 01:23:00,,0828.0,5.01,0.00,29.5,28.0,00.0,38.2,31.4,20.1,0000.0,0010.92,0004.02,0003.51
2022-07-13 01:24:00,,0828.0,5.00,0.00,29.5,28.1,00.0,38.2,31.5,20.1,0000.0,0010.45,0004.06,0003.51
2022-07-13 01:25:00,,0828.0,5.00,0.00,29.5,28.3,00.0,38.2,31.5,20.4,0000.0,0010.07,0004.08,0003.51
2022-07-13 01:26:00,,0828.0,5.00,0.00,29.6,28.5,00.0,38.2,31.6,19.6,0000.0,0010.03,0004.08,0003.51
2022-07-13 01:27:00,,0828.0,5.00,0.00,29.6,28.6,00.0,38.3,31.6,20.2,0000.0,0009.86,0004.07,0003.51
2022-07-13 01:28:00,,0827.9,4.99,0.00,29.7,28.4,00.0,38.3,31.6,20.2,0000.0,0009.72,0004.07,0003.51
2022-07-13 01:29:00,,0827.9,5.00,0.00,29.6,27.7,00.0,38.2,31.5,20.4,0000.0,0009.81,0004.06,0003.51
2022-07-13 01:30:00,,0828.0,5.00,0.00,29.6,27.2,00.0,38.2,31.4,19.5,0000.0,0009.80,0004.09,0003.50
2022-07-13 01:31:00,,0827.9,5.00,0.00,29.5,27.2,00.0,38.2,31.3,19.5,0000.0,0009.19,0004.11,0003.51
2022-07-13 01:32:00,,0827.9,5.00,0.00,29.5,27.3,00.0,38.2,31.2,18.7,0000.0,0009.23,0004.09,0003.51
2022-07-13 01:33:00,,0827.8,5.01,0.00,29.4,27.5,00.0,38.2,31.2,18.6,0000.0,0009.25,0004.11,0003.51
2022-07-13 01:34:00,,0827.8,4.99,0.00,29.4,27.7,00.0,38.2,31.3,18.4,0000.0,0009.75,0004.10,0003.50
2022-07-13 01:35:00,,0827.9,5.00,0.00,29.5,27.9,00.0,38.2,31.4,18.9,0000.0,0009.97,0004.10,0003.50
2022-07-13 01:36:00,,0828.1,4.99,0.00,29.5,28.1,00.0,38.2,31.4,19.1,0000.0,0010.03,0004.11,0003.50
2022-07-13 01:37:00,,0827.9,4.99,0.00,29.5,28.2,00.0,38.2,31.5,19.3,0000.0,0010.17,0004.10,0003.51
2022-07-13 01:38:00,,0827.9,5.01,0.00,29.6,28.4,00.0,38.2,31.6,19.1,0000.0,0010.60,0004.10,0003.51
2022-07-13 01:39:00,,0827.9,5.00,0.00,29.6,28.5,00.0,38.3,31.6,19.5,0000.0,0010.79,0004.12,0003.53
2022-07-13 01:40:00,,0828.0,5.00,0.00,29.6,28.5,00.0,38.3,31.6,19.6,0000.0,0010.84,0004.14,0003.55
2022-07-13 01:41:00,,0827.9,4.98,0.00,29.6,27.7,00.0,38.2,31.5,20.1,0000.0,0010.35,0004.15,0003.57
2022-07-13 01:42:00,,0827.9,5.00,0.00,29.6,27.2,00.0,38.2,31.4,20.3,0000.0,0010.26,0004.17,0003.59
2022-07-13 01:43:00,,0827.9,5.00,0.00,29.5,27.1,00.0,38.2,31.3,20.5,0000.0,0010.59,0004.19,0003.61
2022-07-13 01:44:00,,0828.0,5.01,0.00,29.4,27.2,00.0,38.2,31.2,20.6,0000.0,0010.54,0004.22,0003.64
2022-07-13 01:45:00,,0827.9,5.00,0.00,29.4,27.4,00.0,38.1,31.2,20.8,0000.0,0010.24,0004.25,0003.66
2022-07-13 01:46:00,,0827.9,4.99,0.00,29.4,27.6,00.0,38.1,31.3,21.0,0000.0,0010.58,0004.26,0003.68
2022-07-13 01:47:00,,0828.0,5.01,0.00,29.4,27.8,00.0,38.2,31.3,20.7,0000.0,0010.53,0004.27,0003.71
2022-07-13 01:48:00,,0828.0,5.00,0.00,29.5,28.0,00.0,38.2,31.4,20.2,0000.0,0010.36,0004.29,0003.73
2022-07-13 01:49:00,,0827.9,5.00,0.00,29.5,28.1,00.0,38.2,31.5,20.2,0000.0,0010.02,0004.32,0003.76
2022-07-13 01:50:00,,0828.0,4.99,0.00,29.5,28.3,00.0,38.2,31.5,20.3,0000.0,0010.10,0004.37,0003.76
2022-07-13 01:51:00,,0828.0,5.01,0.00,29.6,28.4,00.0,38.2,31.6,20.2,0000.0,0010.68,0004.41,0003.76
2022-07-13 01:52:00,,0828.0,5.00,0.00,29.6,28.6,00.0,38.2,31.6,20.3,0000.0,0011.14,0004.43,0003.77
2022-07-13 01:53:00,,0828.0,5.00,0.00,29.6,28.4,00.0,38.2,31.6,19.7,0000.0,0011.37,0004.43,0003.77
2022-07-13 01:54:00,,0828.0,5.00,0.00,29.6,27.6,00.0,38.2,31.5,19.5,0000.0,0010.96,0004.45,0003.77
2022-07-13 01:55:00,,0828.0,4.99,0.00,29.6,27.1,00.0,38.1,31.4,19.4,0000.0,0011.36,0004.47,0003.76
2022-07-13 01:56:00,,0828.0,5.00,0.00,29.5,27.1,00.0,38.1,31.2,19.6,0000.0,0011.32,0004.46,0003.76
2022-07-13 01:57:00,,0828.0,5.01,0.00,29.4,27.2,00.0,38.1,31.1,19.8,0000.0,0011.08,0004.46,0003.76
2022-07-13 01:58:00,,0827.9,5.00,0.00,29.4,27.4,00.0,38.1,31.2,19.8,0000.0,0011.58,0004.46,0003.75
2022-07-13 01:59:00,,0827.9,4.99,0.00,29.4,27.6,00.0,38.1,31.3,19.9,0000.0,0011.67,0004.44,0003.74
